Flag for Germany Weather past 2 weeks in Olpe, North Rhine-Westphalia, Germany

Now
72 °F

Sunny.


Feels Like: 77 °F
Forecast: 53 / 83 °F
Wind: 6 mph from Northwest

Location: Hessen

Current Time: Jul 6, 2015 at 6:10:04 PM

Latest Report: Jul 6, 2015 at 5:50 PM


Visibility: 10 mi

Pressure: 30.18 "Hg

Humidity: 50%

Dew point: 52 °F

Location of OlpeLocation

Historic Weather in Olpe — Graph

°F

Olpe temperature yesterday

Maximum temperature yesterday: 91 °F (at 2:20 PM)
Minimum temperature yesterday: 66 °F (at 8:50 PM)
Average temperature yesterday: 81 °F

Past Weeks' High & Low Weather Summary

 TemperatureHumidityPressure
High91 °F (Jul 5, 2:20 PM)100% (Jun 21, 4:20 PM)30.33 "Hg (Jun 21, 4:20 PM)
Low45 °F (Jun 23, 7:50 AM)36% (Jun 30, 2:20 PM)29.68 "Hg (Jun 22, 8:50 PM)
Average68 °F67%30.13 "Hg
* Reported Jun 21 4:20 PM — Jul 6 4:50 PM, Olpe, Weather by CustomWeather, © 2015

Note: Actual official high and low records may vary slightly from our data, if they occured in-between our weather recording intervals... More about our weather records

Advertising

Olpe weather history for previous 24 hours

 ConditionsComfort  
Time TempWeatherWind HumidityBarometerVisibility
4:50 PM
Mon, Jul 6
73 °FSunny.61 mph47%30.21 "Hg10 mi
4:20 PM72 °FSunny.8 mph50%30.21 "Hg10 mi
3:50 PM70 °FPassing clouds.8 mph53%30.21 "HgN/A
3:20 PM70 °FSunny.8 mph53%30.21 "Hg10 mi
2:50 PM68 °FSunny.12 mph53%30.21 "Hg10 mi
1:50 PM68 °FPassing clouds.13 mph53%30.21 "HgN/A
1:20 PM66 °FPassing clouds.8 mph52%30.21 "HgN/A
12:50 PM66 °FPassing clouds.9 mph52%30.21 "HgN/A
12:20 PM66 °FPassing clouds.7 mph49%30.24 "HgN/A
11:50 AM64 °FPassing clouds.5 mph56%30.24 "HgN/A
11:20 AM63 °FPassing clouds.7 mph59%30.24 "HgN/A
10:50 AM63 °FPassing clouds.8 mph64%30.24 "HgN/A
10:20 AM61 °FPassing clouds.9 mph72%30.21 "HgN/A
9:50 AM61 °FPassing clouds.7 mph72%30.21 "HgN/A
9:20 AM59 °FPassing clouds.7 mph82%30.21 "HgN/A
8:50 AM57 °FScattered clouds.6 mph88%30.21 "HgN/A
8:20 AM57 °FPartly sunny.6 mph88%30.21 "HgN/A
7:50 AM55 °FPartly sunny.7 mph94%30.21 "HgN/A
7:20 AM55 °FPartly sunny.8 mph100%30.21 "HgN/A
8:50 PM
Sun, Jul 5
66 °FScattered clouds.16 mph100%30.01 "Hg5 mi
8:20 PM70 °FPassing clouds.14 mph94%29.98 "HgN/A
7:50 PM72 °FPassing clouds.17 mph88%29.98 "HgN/A
7:20 PM75 °FSunny.17 mph74%29.98 "Hg10 mi
6:50 PM81 °FPassing clouds.21 mph66%29.98 "HgN/A
6:20 PM82 °FPassing clouds.6 mph70%29.98 "HgN/A
Weather by CustomWeather, © 2015

See weather overviewHow to use our weather pages